User: anonymous   Login
Location: Unspecified
(0.0000°N, 0.0000°E)
Time: 00:51:57
(UTC+00:00)
Language:

APRIZESAT 3 - Orbit

View from above orbital plane
View from above orbital plane
View from above satellite
View from above satellite

Ground track
Ground track

The orbit data is extracted from the following two-line orbital elements,

1 35686U 09041F   21332.46739697  .00000281  00000-0  35959-4 0  9990
2 35686  98.1233  49.6272 0073754 122.3542 238.4841 14.87603146668720
Epoch (UTC): 28 November 2021 11:13:03
Eccentricity: 0.0073754
inclination: 98.1233°
perigee height: 554 km
apogee height: 657 km
right ascension of ascending node: 49.6272°
argument of perigee: 122.3542°
revolutions per day: 14.87603146
mean anomaly at epoch: 238.4841°
orbit number at epoch: 66872

The dashed part of the orbit path shows where the satellite is in the earth's shadow,  

DLR